Time,TemperatureF,DewpointF,PressureIn,WindDirection,WindDirectionDegrees,WindSpeedMPH,WindSpeedGustMPH,Humidity,HourlyPrecipIn,Conditions,Clouds,dailyrainin,SoftwareType,DateUTC
2013-12-11 00:01:00,13.8,11.4,30.43,SSW,211,0.0,0.0,90,0.00,,,0.07,Wunderground v.1.15,2013-12-11 05:01:00,
2013-12-11 00:03:00,13.8,11.4,30.43,SSW,211,0.0,0.0,90,0.00,,,0.07,Wunderground v.1.15,2013-12-11 05:03:00,
2013-12-11 00:04:00,13.8,11.4,30.43,SSW,210,0.0,0.0,90,0.00,,,0.00,Wunderground v.1.15,2013-12-11 05:04:00,
2013-12-11 00:06:00,13.8,11.4,30.43,SSW,211,0.0,0.0,90,0.00,,,0.00,Wunderground v.1.15,2013-12-11 05:06:00,
2013-12-11 00:08:00,13.8,11.4,30.43,SSW,211,0.0,0.0,90,0.00,,,0.00,Wunderground v.1.15,2013-12-11 05:08:00,
2013-12-11 00:11:00,13.8,11.4,30.43,SSW,210,0.0,0.0,90,0.00,,,0.00,Wunderground v.1.15,2013-12-11 05:11:00,
2013-12-11 00:17:00,13.7,11.3,30.43,SSW,210,0.0,0.0,90,0.00,,,0.00,Wunderground v.1.15,2013-12-11 05:17:00,
2013-12-11 00:22:00,13.6,11.2,30.43,SSW,211,0.0,0.0,90,0.00,,,0.00,Wunderground v.1.15,2013-12-11 05:22:00,
2013-12-11 00:28:00,13.5,11.1,30.43,SSW,210,0.0,0.0,90,0.00,,,0.00,Wunderground v.1.15,2013-12-11 05:28:00,
2013-12-11 00:34:00,13.4,11.0,30.42,SSW,211,0.0,0.0,90,0.00,,,0.00,Wunderground v.1.15,2013-12-11 05:34:00,
2013-12-11 00:40:00,13.3,10.9,30.42,SSW,211,0.0,0.0,90,0.00,,,0.00,Wunderground v.1.15,2013-12-11 05:40:00,
2013-12-11 00:45:00,13.2,10.8,30.42,SSW,210,1.0,1.0,90,0.00,,,0.00,Wunderground v.1.15,2013-12-11 05:45:00,
2013-12-11 00:51:00,13.1,10.7,30.43,SSW,211,0.0,0.0,90,0.00,,,0.00,Wunderground v.1.15,2013-12-11 05:51:00,
2013-12-11 00:57:00,13.0,10.6,30.43,SSW,211,0.0,0.0,90,0.00,,,0.00,Wunderground v.1.15,2013-12-11 05:57:00,
2013-12-11 01:02:00,12.8,10.4,30.43,SSW,211,0.0,0.0,90,0.00,,,0.00,Wunderground v.1.15,2013-12-11 06:02:00,
2013-12-11 01:08:00,12.6,10.2,30.43,SSW,211,0.0,0.0,90,0.00,,,0.00,Wunderground v.1.15,2013-12-11 06:08:00,
2013-12-11 01:14:00,12.5,10.1,30.43,SSW,210,0.0,0.0,90,0.00,,,0.00,Wunderground v.1.15,2013-12-11 06:14:00,
2013-12-11 01:20:00,12.5,10.1,30.43,SSW,211,0.0,0.0,90,0.00,,,0.00,Wunderground v.1.15,2013-12-11 06:20:00,
2013-12-11 01:25:00,12.5,10.1,30.43,SSW,211,0.0,0.0,90,0.00,,,0.00,Wunderground v.1.15,2013-12-11 06:25:00,
2013-12-11 01:31:00,12.5,10.1,30.43,SSW,210,0.0,0.0,90,0.00,,,0.00,Wunderground v.1.15,2013-12-11 06:31:00,
2013-12-11 01:37:00,12.5,10.1,30.43,SSW,211,1.0,1.0,90,0.00,,,0.00,Wunderground v.1.15,2013-12-11 06:37:00,
2013-12-11 01:43:00,12.5,10.1,30.43,SSW,210,2.0,3.0,90,0.00,,,0.00,Wunderground v.1.15,2013-12-11 06:43:00,
2013-12-11 01:49:00,12.6,10.2,30.43,SSW,210,1.0,3.0,90,0.00,,,0.00,Wunderground v.1.15,2013-12-11 06:49:00,
2013-12-11 01:55:00,12.6,10.2,30.43,SSW,210,0.0,1.0,90,0.00,,,0.00,Wunderground v.1.15,2013-12-11 06:55:00,
2013-12-11 02:01:00,12.6,10.2,30.43,SSW,210,0.0,0.0,90,0.00,,,0.00,Wunderground v.1.15,2013-12-11 07:01:00,
2013-12-11 02:06:00,12.6,10.2,30.43,SSW,210,0.0,2.0,90,0.00,,,0.00,Wunderground v.1.15,2013-12-11 07:06:00,
2013-12-11 02:11:00,12.6,10.2,30.43,SSW,210,0.0,0.0,90,0.00,,,0.00,Wunderground v.1.15,2013-12-11 07:11:00,
2013-12-11 02:16:00,12.5,10.1,30.44,SSW,210,0.0,0.0,90,0.00,,,0.00,Wunderground v.1.15,2013-12-11 07:16:00,
2013-12-11 02:21:00,12.3,9.9,30.43,SSW,210,0.0,0.0,90,0.00,,,0.00,Wunderground v.1.15,2013-12-11 07:21:00,
2013-12-11 02:26:00,12.3,9.9,30.43,SSW,210,1.0,3.0,90,0.00,,,0.00,Wunderground v.1.15,2013-12-11 07:26:00,
2013-12-11 02:31:00,12.3,9.9,30.43,SSW,205,2.0,3.0,90,0.00,,,0.00,Wunderground v.1.15,2013-12-11 07:31:00,
2013-12-11 02:36:00,12.6,10.2,30.43,SSW,200,1.0,3.0,90,0.00,,,0.00,Wunderground v.1.15,2013-12-11 07:36:00,
2013-12-11 02:41:00,12.7,10.3,30.43,SSW,200,0.0,2.0,90,0.00,,,0.00,Wunderground v.1.15,2013-12-11 07:41:00,
2013-12-11 02:46:00,12.7,10.3,30.43,SSW,205,0.0,2.0,90,0.00,,,0.00,Wunderground v.1.15,2013-12-11 07:46:00,
2013-12-11 02:51:00,12.6,10.2,30.43,SSW,205,0.0,0.0,90,0.00,,,0.00,Wunderground v.1.15,2013-12-11 07:51:00,
2013-12-11 02:56:00,12.5,10.1,30.43,SSW,205,0.0,0.0,90,0.00,,,0.00,Wunderground v.1.15,2013-12-11 07:56:00,
2013-12-11 03:01:00,12.3,9.9,30.43,SSW,200,0.0,0.0,90,0.00,,,0.00,Wunderground v.1.15,2013-12-11 08:01:00,
2013-12-11 03:06:00,12.1,9.5,30.43,SSW,205,0.0,2.0,89,0.00,,,0.00,Wunderground v.1.15,2013-12-11 08:06:00,
2013-12-11 03:11:00,11.9,9.3,30.43,SSW,205,2.0,2.0,89,0.00,,,0.00,Wunderground v.1.15,2013-12-11 08:11:00,
2013-12-11 03:16:00,12.0,9.4,30.43,SSW,205,0.0,2.0,89,0.00,,,0.00,Wunderground v.1.15,2013-12-11 08:16:00,
2013-12-11 03:21:00,12.1,9.7,30.43,SSW,205,0.0,1.0,90,0.00,,,0.00,Wunderground v.1.15,2013-12-11 08:21:00,